Hourly Data Report for August 14, 2020

SVARTEVAEG
NUNAVUT
Current Station Operator: ECCC - MSC

81°09'39.000" N
91°48'59.060" W
72.00 m
2403833
71872
NSG

Download Data

Hourly Data (August 2020)
Hourly Data Report for August 14, 2020
TIME Temp Definition
°C
Dew Point Definition
°C
Rel Hum Definition
%
Wind Dir Definition
10's deg

Wind Spd Definition
km/h
Visibility Definition
km
Stn Press Definition
kPa
Hmdx Definition


Wind Chill Definition


Weather Definition


00:00 -0.5 -1.5 93 34 9   100.20   -4 LegendNANA
01:00 -0.2 -1.3 93 34 11   100.25   -4 LegendNANA
02:00 0.0 -1.3 91 35 12   100.32   -4 LegendNANA
03:00 -0.3 -1.4 92 33 13   100.36   -4 LegendNANA
04:00 0.1 -1.3 90 32 11   100.37     LegendNANA
05:00 0.0 -1.3 90 32 11   100.40   -4 LegendNANA
06:00 0.3 -1.2 90 33 13   100.43     LegendNANA
07:00 0.4 -1.4 87 33 11   100.43     LegendNANA
08:00 0.6 -0.9 90 35 14   100.45     LegendNANA
09:00 0.6 -0.8 90 34 11   100.47     LegendNANA
10:00 0.6 -0.8 90 34 15   100.50     LegendNANA
11:00 0.7 -0.6 91 33 14   100.50     LegendNANA
12:00 0.7 -0.6 91 35 15   100.53     LegendNANA
13:00 0.4 -0.4 94 34 20   100.59     LegendNANA
14:00 0.6 -0.4 93 34 17   100.60     LegendNANA
15:00 0.2 -0.4 96 34 21   100.63     LegendNANA
16:00 0.3 -0.4 95 35 19   100.64     LegendNANA
17:00 0.2 -0.3 96 34 15   100.65     LegendNANA
18:00 0.1 -0.2 98 34 14   100.65     LegendNANA
19:00 0.2 -0.1 98 34 17   100.65     LegendNANA
20:00 0.1 -0.1 99 34 16   100.65     LegendNANA
21:00 0.2 0.0 99 34 14   100.66     LegendNANA
22:00 0.2 0.1 99 34 12   100.67     LegendNANA
23:00 0.2 0.1 99 34 11   100.66     LegendNANA

Notes on Data Quality.

Legend

  • E = Estimated
  • M = Missing
  • NA = Not Available*
  • [empty] = Indicates an unobserved value
Date modified: